ANS544 SAEZ-SAZS

Flight info

Callsign ANS544
Flight time 2h 0m
Altitude 36000
Route TORUL1E TORUL UT654 ORERA ORERA2Q
Aircraft B738/M-SDE2E3FGHIRWXY/LB1

Departure

Time 2026-04-27 21:31
Airport Ezeiza International Airport - Ministro Pistarini (SAEZ)

Arrival

Time 2026-04-27 23:31
Airport Teniente Luis Candelaria International Airport (SAZS)
Time Latitude Longitude Altitude Speed Heading
2026-04-27 20:37 -34.80820 -58.53780 69 ft 0 kts 252°
2026-04-27 21:17 -34.80819 -58.53774 74 ft 3 kts 252°
2026-04-27 21:17 -34.80813 -58.53751 64 ft 3 kts 249°
2026-04-27 21:17 -34.80805 -58.53728 71 ft 3 kts 244°
2026-04-27 21:17 -34.80795 -58.53706 64 ft 3 kts 238°
2026-04-27 21:18 -34.80784 -58.53686 71 ft 3 kts 225°
2026-04-27 21:18 -34.80769 -58.53672 65 ft 3 kts 192°
2026-04-27 21:18 -34.80757 -58.53672 69 ft 1 kts 164°
2026-04-27 21:18 -34.80755 -58.53673 65 ft 0 kts 164°
2026-04-27 21:23 -34.80755 -58.53672 74 ft 1 kts 164°
2026-04-27 21:23 -34.80807 -58.53655 69 ft 13 kts 164°
2026-04-27 21:24 -34.80897 -58.53624 71 ft 13 kts 164°
2026-04-27 21:24 -34.80983 -58.53593 72 ft 13 kts 163°
2026-04-27 21:24 -34.81074 -58.53561 72 ft 15 kts 163°
2026-04-27 21:24 -34.81170 -58.53579 70 ft 15 kts 201°
2026-04-27 21:25 -34.81269 -58.53588 69 ft 14 kts 178°
2026-04-27 21:25 -34.81365 -58.53591 68 ft 13 kts 187°
2026-04-27 21:25 -34.81453 -58.53620 68 ft 13 kts 200°
2026-04-27 21:25 -34.81531 -58.53666 74 ft 13 kts 210°
2026-04-27 21:26 -34.81599 -58.53733 71 ft 12 kts 224°
2026-04-27 21:26 -34.81673 -58.53766 70 ft 12 kts 160°
2026-04-27 21:26 -34.81745 -58.53721 74 ft 12 kts 155°
2026-04-27 21:26 -34.81817 -58.53679 72 ft 11 kts 154°
2026-04-27 21:27 -34.81904 -58.53610 65 ft 20 kts 128°
2026-04-27 21:27 -34.81942 -58.53443 70 ft 21 kts 103°
2026-04-27 21:27 -34.81975 -58.53277 73 ft 20 kts 103°
2026-04-27 21:27 -34.82007 -58.53116 72 ft 19 kts 103°
2026-04-27 21:28 -34.82039 -58.52958 83 ft 19 kts 104°
2026-04-27 21:28 -34.82069 -58.52811 71 ft 18 kts 103°
2026-04-27 21:28 -34.82098 -58.52666 72 ft 17 kts 103°
2026-04-27 21:28 -34.82125 -58.52526 69 ft 17 kts 103°
2026-04-27 21:29 -34.82152 -58.52391 69 ft 16 kts 104°
2026-04-27 21:29 -34.82181 -58.52247 72 ft 21 kts 104°
2026-04-27 21:29 -34.82216 -58.52074 71 ft 21 kts 104°
2026-04-27 21:29 -34.82250 -58.51905 74 ft 20 kts 104°
2026-04-27 21:30 -34.82289 -58.51787 65 ft 15 kts 160°
2026-04-27 21:30 -34.82388 -58.51804 74 ft 14 kts 192°
2026-04-27 21:30 -34.82480 -58.51838 84 ft 14 kts 212°
2026-04-27 21:30 -34.82495 -58.52068 74 ft 61 kts 283°
2026-04-27 21:31 -34.82352 -58.52852 85 ft 126 kts 282°
2026-04-27 21:31 -34.82137 -58.54088 265 ft 163 kts 281°
2026-04-27 21:31 -34.81889 -58.55480 917 ft 171 kts 282°
2026-04-27 21:31 -34.81618 -58.56913 1693 ft 181 kts 281°
2026-04-27 21:32 -34.81314 -58.58526 1998 ft 209 kts 281°
2026-04-27 21:32 -34.81055 -58.60341 2404 ft 223 kts 267°
2026-04-27 21:32 -34.81487 -58.62150 3124 ft 225 kts 242°
2026-04-27 21:32 -34.82426 -58.63772 3617 ft 245 kts 231°
2026-04-27 21:33 -34.83570 -58.65355 4403 ft 252 kts 229°
2026-04-27 21:33 -34.84744 -58.66932 5262 ft 257 kts 229°
2026-04-27 21:33 -34.85949 -58.68552 6167 ft 259 kts 230°
2026-04-27 21:33 -34.87160 -58.70189 7045 ft 261 kts 230°
2026-04-27 21:34 -34.88371 -58.71837 7934 ft 261 kts 230°
2026-04-27 21:34 -34.89576 -58.73486 8843 ft 261 kts 230°
2026-04-27 21:34 -34.90784 -58.75145 9757 ft 261 kts 229°
2026-04-27 21:34 -34.91994 -58.76813 10498 ft 267 kts 230°
2026-04-27 21:35 -34.93272 -58.78581 10728 ft 291 kts 230°
2026-04-27 21:35 -34.94664 -58.80510 10926 ft 314 kts 230°
2026-04-27 21:35 -34.96155 -58.82578 11224 ft 331 kts 230°
2026-04-27 21:35 -34.97693 -58.84713 11840 ft 337 kts 230°
2026-04-27 21:36 -34.99245 -58.86867 12604 ft 339 kts 230°
2026-04-27 21:36 -35.00808 -58.89040 13368 ft 342 kts 230°
2026-04-27 21:36 -35.02369 -58.91212 14057 ft 345 kts 231°
2026-04-27 21:36 -35.03962 -58.93430 14715 ft 348 kts 231°
2026-04-27 21:37 -35.05561 -58.95657 15405 ft 349 kts 231°
2026-04-27 21:37 -35.07164 -58.97892 16084 ft 351 kts 231°
2026-04-27 21:37 -35.08731 -59.00080 16719 ft 353 kts 231°
2026-04-27 21:37 -35.10315 -59.02291 17342 ft 355 kts 231°
2026-04-27 21:38 -35.11953 -59.04581 18002 ft 358 kts 231°
2026-04-27 21:38 -35.13597 -59.06881 18568 ft 361 kts 231°
2026-04-27 21:38 -35.15253 -59.09198 19118 ft 363 kts 231°
2026-04-27 21:38 -35.16921 -59.11532 19684 ft 365 kts 231°
2026-04-27 21:39 -35.18575 -59.13849 20203 ft 367 kts 231°
2026-04-27 21:39 -35.20239 -59.16231 20738 ft 369 kts 234°
2026-04-27 21:39 -35.21749 -59.18777 21251 ft 370 kts 237°
2026-04-27 21:39 -35.23229 -59.21368 21765 ft 372 kts 237°
2026-04-27 21:40 -35.24713 -59.23979 22256 ft 374 kts 237°
2026-04-27 21:40 -35.26053 -59.26331 22696 ft 376 kts 237°
2026-04-27 21:40 -35.26869 -59.27761 22962 ft 378 kts 237°
2026-04-27 21:40 -35.28381 -59.30403 23427 ft 380 kts 237°
2026-04-27 21:41 -35.29899 -59.33054 23838 ft 382 kts 237°
2026-04-27 21:41 -35.31438 -59.35738 24208 ft 385 kts 237°
2026-04-27 21:41 -35.32977 -59.38423 24622 ft 386 kts 237°
2026-04-27 21:41 -35.34516 -59.41110 25038 ft 386 kts 237°
2026-04-27 21:42 -35.36060 -59.43809 25438 ft 387 kts 237°
2026-04-27 21:42 -35.37626 -59.46518 25818 ft 389 kts 237°
2026-04-27 21:42 -35.39182 -59.49175 26176 ft 391 kts 237°
2026-04-27 21:42 -35.40779 -59.51890 26537 ft 392 kts 236°
2026-04-27 21:43 -35.42375 -59.54605 26892 ft 393 kts 237°
2026-04-27 21:43 -35.43980 -59.57337 27238 ft 395 kts 237°
2026-04-27 21:43 -35.45587 -59.60080 27569 ft 396 kts 237°
2026-04-27 21:43 -35.47200 -59.62837 27885 ft 398 kts 237°
2026-04-27 21:44 -35.48801 -59.65578 28181 ft 400 kts 237°
2026-04-27 21:44 -35.50425 -59.68360 28501 ft 401 kts 237°
2026-04-27 21:44 -35.52051 -59.71150 28894 ft 401 kts 237°
2026-04-27 21:44 -35.53665 -59.73920 29393 ft 398 kts 237°
2026-04-27 21:45 -35.55270 -59.76676 29941 ft 394 kts 237°
2026-04-27 21:45 -35.56858 -59.79405 30383 ft 391 kts 237°
2026-04-27 21:45 -35.58437 -59.82123 30734 ft 390 kts 237°
2026-04-27 21:45 -35.60014 -59.84839 31083 ft 389 kts 237°
2026-04-27 21:46 -35.61582 -59.87543 31454 ft 387 kts 237°
2026-04-27 21:46 -35.63142 -59.90234 31823 ft 385 kts 237°
2026-04-27 21:46 -35.64692 -59.92910 32155 ft 384 kts 237°
2026-04-27 21:46 -35.65718 -59.94683 32380 ft 384 kts 238°
2026-04-27 21:47 -35.67279 -59.97381 32753 ft 382 kts 238°
2026-04-27 21:47 -35.68796 -60.00005 33118 ft 380 kts 238°
2026-04-27 21:47 -35.70241 -60.02507 33435 ft 378 kts 238°
2026-04-27 21:47 -35.71765 -60.05147 33766 ft 377 kts 238°
2026-04-27 21:48 -35.73285 -60.07782 34100 ft 375 kts 238°
2026-04-27 21:48 -35.74795 -60.10403 34370 ft 374 kts 238°
2026-04-27 21:48 -35.76304 -60.13023 34610 ft 374 kts 238°
2026-04-27 21:48 -35.77810 -60.15641 34829 ft 374 kts 238°
2026-04-27 21:49 -35.79313 -60.18256 35029 ft 375 kts 238°
2026-04-27 21:49 -35.80825 -60.20888 35192 ft 376 kts 238°
2026-04-27 21:49 -35.82323 -60.23499 35321 ft 378 kts 238°
2026-04-27 21:49 -35.83842 -60.26147 35469 ft 380 kts 238°
2026-04-27 21:50 -35.85370 -60.28812 35691 ft 379 kts 238°
2026-04-27 21:50 -35.86892 -60.31468 35917 ft 379 kts 238°
2026-04-27 21:50 -35.88412 -60.34123 36078 ft 380 kts 238°
2026-04-27 21:50 -35.89942 -60.36800 36069 ft 383 kts 238°
2026-04-27 21:51 -35.93002 -60.42155 36084 ft 380 kts 238°
2026-04-27 21:51 -35.96030 -60.47463 36094 ft 377 kts 238°
2026-04-27 21:52 -35.99049 -60.52764 36084 ft 376 kts 238°
2026-04-27 21:52 -36.02023 -60.57995 36084 ft 376 kts 238°
2026-04-27 21:53 -36.05026 -60.63284 36084 ft 376 kts 238°
2026-04-27 21:53 -36.08030 -60.68586 36090 ft 377 kts 238°
2026-04-27 21:54 -36.11050 -60.73920 36099 ft 379 kts 238°
2026-04-27 21:54 -36.14074 -60.79279 36085 ft 381 kts 238°
2026-04-27 21:55 -36.17096 -60.84672 36085 ft 382 kts 238°
2026-04-27 21:55 -36.20130 -60.90097 36091 ft 384 kts 238°
2026-04-27 21:56 -36.24696 -60.98275 36085 ft 385 kts 238°
2026-04-27 21:57 -36.27674 -61.03618 36085 ft 385 kts 238°
2026-04-27 21:57 -36.30723 -61.09097 36081 ft 385 kts 238°
2026-04-27 21:58 -36.33741 -61.14530 36087 ft 385 kts 238°
2026-04-27 21:58 -36.36779 -61.20007 36087 ft 385 kts 238°
2026-04-27 21:59 -36.39814 -61.25485 36082 ft 385 kts 238°
2026-04-27 21:59 -36.42840 -61.30960 36085 ft 384 kts 238°
2026-04-27 22:00 -36.45864 -61.36441 36078 ft 384 kts 238°
2026-04-27 22:00 -36.48875 -61.41907 36087 ft 383 kts 238°
2026-04-27 22:01 -36.51881 -61.47374 36085 ft 383 kts 238°
2026-04-27 22:01 -36.54889 -61.52852 36081 ft 383 kts 238°
2026-04-27 22:02 -36.57891 -61.58329 36079 ft 383 kts 238°
2026-04-27 22:02 -36.60895 -61.63818 36078 ft 383 kts 238°
2026-04-27 22:03 -36.63897 -61.69312 36079 ft 384 kts 238°
2026-04-27 22:03 -36.66895 -61.74807 36080 ft 384 kts 238°
2026-04-27 22:04 -36.69898 -61.80322 36076 ft 384 kts 238°
2026-04-27 22:04 -36.72882 -61.85809 36077 ft 384 kts 238°
2026-04-27 22:05 -36.75881 -61.91334 36107 ft 384 kts 238°
2026-04-27 22:05 -36.78883 -61.96873 36086 ft 385 kts 238°
2026-04-27 22:06 -36.81808 -62.02281 36076 ft 386 kts 238°
2026-04-27 22:06 -36.84796 -62.07810 36070 ft 386 kts 238°
2026-04-27 22:07 -36.87800 -62.13381 36072 ft 386 kts 238°
2026-04-27 22:07 -36.90798 -62.18949 36070 ft 386 kts 238°
2026-04-27 22:08 -36.93795 -62.24523 36059 ft 386 kts 239°
2026-04-27 22:08 -36.96789 -62.30102 36069 ft 386 kts 239°
2026-04-27 22:09 -36.99783 -62.35691 36065 ft 386 kts 239°
2026-04-27 22:09 -37.02758 -62.41253 36062 ft 386 kts 239°
2026-04-27 22:10 -37.05742 -62.46842 36060 ft 386 kts 239°
2026-04-27 22:10 -37.08724 -62.52435 36063 ft 386 kts 239°
2026-04-27 22:11 -37.11703 -62.58032 36063 ft 386 kts 239°
2026-04-27 22:11 -37.14662 -62.63602 36058 ft 386 kts 239°
2026-04-27 22:12 -37.17639 -62.69214 36075 ft 387 kts 239°
2026-04-27 22:12 -37.20616 -62.74838 36064 ft 387 kts 239°
2026-04-27 22:13 -37.23600 -62.80483 36057 ft 387 kts 239°
2026-04-27 22:13 -37.26578 -62.86125 36055 ft 388 kts 239°
2026-04-27 22:14 -37.29555 -62.91777 36052 ft 388 kts 239°
2026-04-27 22:14 -37.32529 -62.97432 36052 ft 388 kts 239°
2026-04-27 22:15 -37.35423 -63.02939 36048 ft 388 kts 239°
2026-04-27 22:15 -37.38391 -63.08580 36046 ft 388 kts 239°
2026-04-27 22:16 -37.41373 -63.14252 36053 ft 389 kts 239°
2026-04-27 22:16 -37.44361 -63.19947 36042 ft 389 kts 239°
2026-04-27 22:17 -37.47336 -63.25630 36039 ft 389 kts 239°
2026-04-27 22:17 -37.50315 -63.31329 36039 ft 389 kts 239°
2026-04-27 22:18 -37.53292 -63.37036 36038 ft 389 kts 239°
2026-04-27 22:18 -37.56247 -63.42711 36035 ft 389 kts 239°
2026-04-27 22:19 -37.59219 -63.48427 36044 ft 390 kts 239°
2026-04-27 22:19 -37.62189 -63.54149 36023 ft 390 kts 239°
2026-04-27 22:20 -37.65154 -63.59872 36034 ft 390 kts 239°
2026-04-27 22:20 -37.68122 -63.65609 36033 ft 390 kts 239°
2026-04-27 22:21 -37.71081 -63.71340 36035 ft 390 kts 239°
2026-04-27 22:21 -37.74039 -63.77080 36017 ft 390 kts 239°
2026-04-27 22:22 -37.77001 -63.82836 36029 ft 390 kts 239°
2026-04-27 22:22 -37.79957 -63.88590 36032 ft 390 kts 239°
2026-04-27 22:23 -37.82908 -63.94347 36016 ft 390 kts 239°
2026-04-27 22:23 -37.85839 -64.00073 36013 ft 390 kts 239°
2026-04-27 22:24 -37.88721 -64.05714 36008 ft 390 kts 239°
2026-04-27 22:24 -37.91668 -64.11491 36022 ft 390 kts 239°
2026-04-27 22:25 -37.94614 -64.17277 36020 ft 391 kts 239°
2026-04-27 22:25 -37.97082 -64.22132 36025 ft 391 kts 239°
2026-04-27 22:26 -38.00010 -64.27902 36018 ft 392 kts 239°
2026-04-27 22:26 -38.02950 -64.33706 36017 ft 393 kts 239°
2026-04-27 22:27 -38.06382 -64.40494 36011 ft 393 kts 239°
2026-04-27 22:27 -38.08855 -64.45393 36015 ft 393 kts 239°
2026-04-27 22:28 -38.11805 -64.51249 36014 ft 394 kts 240°
2026-04-27 22:28 -38.14749 -64.57113 36014 ft 394 kts 240°
2026-04-27 22:29 -38.17675 -64.62955 36013 ft 394 kts 240°
2026-04-27 22:29 -38.20616 -64.68838 36013 ft 394 kts 240°
2026-04-27 22:30 -38.23552 -64.74720 36020 ft 393 kts 240°
2026-04-27 22:30 -38.26489 -64.80615 36016 ft 393 kts 240°
2026-04-27 22:31 -38.29393 -64.86454 36012 ft 393 kts 240°
2026-04-27 22:31 -38.32311 -64.92332 36016 ft 392 kts 240°
2026-04-27 22:32 -38.35228 -64.98219 36012 ft 392 kts 240°
2026-04-27 22:32 -38.38037 -65.03897 36005 ft 392 kts 240°
2026-04-27 22:33 -38.40944 -65.09784 36015 ft 392 kts 240°
2026-04-27 22:33 -38.43827 -65.15634 36011 ft 392 kts 240°
2026-04-27 22:34 -38.46729 -65.21533 36008 ft 392 kts 240°
2026-04-27 22:34 -38.49627 -65.27434 36000 ft 392 kts 240°
2026-04-27 22:35 -38.52524 -65.33343 36005 ft 392 kts 240°
2026-04-27 22:35 -38.55393 -65.39208 36006 ft 392 kts 240°
2026-04-27 22:36 -38.58281 -65.45120 36002 ft 392 kts 240°
2026-04-27 22:36 -38.61169 -65.51044 35996 ft 392 kts 240°
2026-04-27 22:37 -38.64058 -65.56983 35996 ft 392 kts 240°
2026-04-27 22:37 -38.66927 -65.62890 35984 ft 393 kts 240°
2026-04-27 22:38 -38.69804 -65.68824 35993 ft 393 kts 240°
2026-04-27 22:38 -38.72689 -65.74786 35992 ft 394 kts 240°
2026-04-27 22:39 -38.75570 -65.80750 36016 ft 394 kts 240°
2026-04-27 22:39 -38.78456 -65.86737 35999 ft 395 kts 240°
2026-04-27 22:40 -38.81348 -65.92747 35987 ft 395 kts 240°
2026-04-27 22:40 -38.84235 -65.98757 35989 ft 395 kts 240°
2026-04-27 22:41 -38.87022 -66.04572 35985 ft 395 kts 240°
2026-04-27 22:41 -38.89893 -66.10571 35989 ft 394 kts 240°
2026-04-27 22:42 -38.92755 -66.16570 35986 ft 394 kts 240°
2026-04-27 22:42 -38.95614 -66.22585 35986 ft 393 kts 240°
2026-04-27 22:43 -38.98460 -66.28586 35995 ft 393 kts 240°
2026-04-27 22:43 -39.01289 -66.34563 35989 ft 393 kts 240°
2026-04-27 22:44 -39.04122 -66.40558 35985 ft 392 kts 240°
2026-04-27 22:44 -39.06957 -66.46568 35987 ft 392 kts 240°
2026-04-27 22:45 -39.09782 -66.52569 35985 ft 392 kts 240°
2026-04-27 22:45 -39.12606 -66.58577 35988 ft 392 kts 240°
2026-04-27 22:46 -39.15402 -66.64541 35993 ft 392 kts 240°
2026-04-27 22:46 -39.18220 -66.70561 35985 ft 392 kts 240°
2026-04-27 22:47 -39.21027 -66.76569 35980 ft 392 kts 240°
2026-04-27 22:47 -39.23841 -66.82603 35978 ft 392 kts 240°
2026-04-27 22:48 -39.26648 -66.88634 35976 ft 392 kts 240°
2026-04-27 22:48 -39.29455 -66.94676 35978 ft 392 kts 240°
2026-04-27 22:49 -39.32160 -67.00508 35975 ft 393 kts 240°
2026-04-27 22:49 -39.34965 -67.06570 35975 ft 393 kts 240°
2026-04-27 22:50 -39.37769 -67.12640 35970 ft 393 kts 240°
2026-04-27 22:50 -39.40575 -67.18727 35967 ft 394 kts 240°
2026-04-27 22:51 -39.43376 -67.24814 35967 ft 394 kts 240°
2026-04-27 22:51 -39.46177 -67.30912 35965 ft 394 kts 240°
2026-04-27 22:52 -39.48980 -67.37028 35967 ft 395 kts 240°
2026-04-27 22:52 -39.51777 -67.43143 35963 ft 395 kts 241°
2026-04-27 22:53 -39.54562 -67.49242 35969 ft 396 kts 240°
2026-04-27 22:53 -39.57378 -67.55424 35962 ft 396 kts 240°
2026-04-27 22:54 -39.60165 -67.61551 35966 ft 397 kts 240°
2026-04-27 22:54 -39.62967 -67.67725 35969 ft 397 kts 240°
2026-04-27 22:55 -39.65772 -67.73916 35975 ft 397 kts 240°
2026-04-27 22:55 -39.68571 -67.80108 35972 ft 398 kts 240°
2026-04-27 22:56 -39.71368 -67.86308 35979 ft 398 kts 240°
2026-04-27 22:56 -39.74164 -67.92518 35978 ft 398 kts 240°
2026-04-27 22:57 -39.76959 -67.98738 35978 ft 398 kts 240°
2026-04-27 22:57 -39.79663 -68.04765 35983 ft 398 kts 240°
2026-04-27 22:58 -39.82535 -68.10918 35982 ft 398 kts 238°
2026-04-27 22:58 -39.85606 -68.16917 35984 ft 398 kts 237°
2026-04-27 22:59 -39.88689 -68.22905 35986 ft 399 kts 237°
2026-04-27 22:59 -39.91770 -68.28945 35995 ft 400 kts 237°
2026-04-27 23:00 -39.96366 -68.38026 35992 ft 401 kts 237°
2026-04-27 23:00 -39.99435 -68.44110 35990 ft 402 kts 237°
2026-04-27 23:01 -40.02554 -68.50110 35993 ft 402 kts 236°
2026-04-27 23:01 -40.05736 -68.56124 35982 ft 403 kts 236°
2026-04-27 23:02 -40.08963 -68.62246 35999 ft 404 kts 236°
2026-04-27 23:02 -40.12143 -68.68311 35994 ft 405 kts 236°
2026-04-27 23:03 -40.14807 -68.73410 36001 ft 406 kts 236°
2026-04-27 23:03 -40.17987 -68.79510 36001 ft 406 kts 236°
2026-04-27 23:04 -40.21165 -68.85618 35838 ft 409 kts 236°
2026-04-27 23:04 -40.22768 -68.88706 35461 ft 409 kts 235°
2026-04-27 23:04 -40.24362 -68.91776 34966 ft 405 kts 235°
2026-04-27 23:05 -40.25936 -68.94812 34551 ft 401 kts 235°
2026-04-27 23:05 -40.27495 -68.97821 34123 ft 397 kts 235°
2026-04-27 23:05 -40.28955 -69.00642 33670 ft 394 kts 235°
2026-04-27 23:05 -40.30487 -69.03606 33204 ft 390 kts 235°
2026-04-27 23:06 -40.31995 -69.06524 32765 ft 386 kts 235°
2026-04-27 23:06 -40.33489 -69.09420 32359 ft 381 kts 235°
2026-04-27 23:06 -40.34968 -69.12288 31938 ft 377 kts 235°
2026-04-27 23:06 -40.36431 -69.15128 31534 ft 374 kts 235°
2026-04-27 23:07 -40.37876 -69.17936 31135 ft 370 kts 235°
2026-04-27 23:07 -40.39311 -69.20726 30726 ft 367 kts 235°
2026-04-27 23:07 -40.40716 -69.23462 30344 ft 364 kts 235°
2026-04-27 23:07 -40.42125 -69.26206 29941 ft 361 kts 235°
2026-04-27 23:08 -40.43522 -69.28931 29493 ft 358 kts 235°
2026-04-27 23:08 -40.44904 -69.31626 29108 ft 354 kts 235°
2026-04-27 23:08 -40.46269 -69.34294 28705 ft 349 kts 235°
2026-04-27 23:08 -40.47620 -69.36935 28298 ft 346 kts 235°
2026-04-27 23:09 -40.48956 -69.39548 27908 ft 342 kts 235°
2026-04-27 23:09 -40.50278 -69.42137 27529 ft 339 kts 235°
2026-04-27 23:09 -40.51572 -69.44673 27148 ft 336 kts 235°
2026-04-27 23:09 -40.52869 -69.47216 26757 ft 334 kts 235°
2026-04-27 23:10 -40.54170 -69.49769 26379 ft 331 kts 235°
2026-04-27 23:10 -40.55430 -69.52245 26021 ft 328 kts 235°
2026-04-27 23:10 -40.56697 -69.54736 25643 ft 326 kts 234°
2026-04-27 23:10 -40.57951 -69.57204 25279 ft 324 kts 234°
2026-04-27 23:11 -40.59200 -69.59664 24917 ft 322 kts 234°
2026-04-27 23:11 -40.60444 -69.62115 24552 ft 320 kts 234°
2026-04-27 23:11 -40.61680 -69.64552 24193 ft 318 kts 234°
2026-04-27 23:11 -40.62907 -69.66975 23835 ft 317 kts 234°
2026-04-27 23:12 -40.64125 -69.69381 23476 ft 315 kts 235°
2026-04-27 23:12 -40.65339 -69.71780 23049 ft 313 kts 235°
2026-04-27 23:12 -40.66543 -69.74162 22693 ft 310 kts 235°
2026-04-27 23:12 -40.67718 -69.76489 22334 ft 307 kts 235°
2026-04-27 23:13 -40.68895 -69.78821 21990 ft 304 kts 235°
2026-04-27 23:13 -40.70064 -69.81139 21639 ft 302 kts 235°
2026-04-27 23:13 -40.71221 -69.83435 21296 ft 299 kts 235°
2026-04-27 23:13 -40.72369 -69.85714 20967 ft 297 kts 235°
2026-04-27 23:14 -40.73510 -69.87983 20619 ft 298 kts 235°
2026-04-27 23:14 -40.74660 -69.90269 20274 ft 299 kts 235°
2026-04-27 23:14 -40.75825 -69.92585 19949 ft 307 kts 235°
2026-04-27 23:14 -40.77015 -69.94954 19592 ft 311 kts 235°
2026-04-27 23:15 -40.78211 -69.97339 19233 ft 310 kts 236°
2026-04-27 23:15 -40.79396 -69.99702 18872 ft 308 kts 236°
2026-04-27 23:15 -40.80492 -70.01890 18546 ft 305 kts 236°
2026-04-27 23:15 -40.81675 -70.04254 18180 ft 303 kts 236°
2026-04-27 23:16 -40.82813 -70.06530 17801 ft 300 kts 236°
2026-04-27 23:16 -40.83958 -70.08823 17445 ft 298 kts 236°
2026-04-27 23:16 -40.85094 -70.11098 17110 ft 295 kts 236°
2026-04-27 23:16 -40.86222 -70.13357 16746 ft 293 kts 236°
2026-04-27 23:17 -40.87340 -70.15599 16430 ft 291 kts 236°
2026-04-27 23:17 -40.88449 -70.17824 16080 ft 289 kts 236°
2026-04-27 23:17 -40.89550 -70.20035 15755 ft 287 kts 236°
2026-04-27 23:17 -40.90645 -70.22236 15398 ft 286 kts 236°
2026-04-27 23:18 -40.91734 -70.24425 15067 ft 284 kts 236°
2026-04-27 23:18 -40.92814 -70.26599 14756 ft 282 kts 236°
2026-04-27 23:18 -40.93885 -70.28757 14428 ft 280 kts 236°
2026-04-27 23:18 -40.94951 -70.30905 14110 ft 279 kts 235°
2026-04-27 23:19 -40.96020 -70.33060 13777 ft 279 kts 235°
2026-04-27 23:19 -40.97082 -70.35202 13410 ft 278 kts 235°
2026-04-27 23:19 -40.98126 -70.37311 13062 ft 276 kts 235°
2026-04-27 23:19 -40.99187 -70.39456 12731 ft 274 kts 235°
2026-04-27 23:20 -41.00221 -70.41548 12410 ft 272 kts 235°
2026-04-27 23:20 -41.01241 -70.43611 12104 ft 270 kts 235°
2026-04-27 23:20 -41.02266 -70.45686 11777 ft 269 kts 235°
2026-04-27 23:20 -41.03289 -70.47760 11452 ft 268 kts 234°
2026-04-27 23:21 -41.04310 -70.49830 11142 ft 267 kts 234°
2026-04-27 23:21 -41.05328 -70.51896 10825 ft 266 kts 234°
2026-04-27 23:21 -41.06337 -70.53946 10508 ft 266 kts 234°
2026-04-27 23:21 -41.07337 -70.55978 10336 ft 258 kts 234°
2026-04-27 23:22 -41.08304 -70.57945 10205 ft 251 kts 234°
2026-04-27 23:22 -41.09240 -70.59853 10099 ft 242 kts 234°
2026-04-27 23:22 -41.10150 -70.61704 9951 ft 238 kts 234°
2026-04-27 23:22 -41.11039 -70.63514 9676 ft 237 kts 234°
2026-04-27 23:23 -41.11945 -70.65359 9403 ft 235 kts 234°
2026-04-27 23:23 -41.12824 -70.67149 9147 ft 234 kts 234°
2026-04-27 23:23 -41.13714 -70.68965 9006 ft 228 kts 235°
2026-04-27 23:23 -41.14561 -70.70695 8895 ft 226 kts 235°
2026-04-27 23:24 -41.15421 -70.72450 8809 ft 227 kts 235°
2026-04-27 23:24 -41.16286 -70.74216 8705 ft 228 kts 235°
2026-04-27 23:24 -41.17134 -70.75952 8590 ft 220 kts 235°
2026-04-27 23:24 -41.17950 -70.77623 8484 ft 212 kts 236°
2026-04-27 23:25 -41.18750 -70.79260 8231 ft 211 kts 236°
2026-04-27 23:25 -41.19565 -70.80859 8007 ft 208 kts 231°
2026-04-27 23:25 -41.20470 -70.82341 7792 ft 204 kts 230°
2026-04-27 23:25 -41.21377 -70.83796 7532 ft 205 kts 230°
2026-04-27 23:26 -41.22278 -70.85254 7349 ft 201 kts 231°
2026-04-27 23:26 -41.23147 -70.86666 7312 ft 197 kts 231°
2026-04-27 23:26 -41.23915 -70.88242 6858 ft 211 kts 256°
2026-04-27 23:26 -41.23777 -70.90127 6747 ft 209 kts 284°
2026-04-27 23:27 -41.23309 -70.91982 6470 ft 212 kts 287°
2026-04-27 23:27 -41.22746 -70.93801 6187 ft 214 kts 290°
2026-04-27 23:27 -41.22135 -70.95579 5891 ft 215 kts 292°
2026-04-27 23:27 -41.21504 -70.97383 5631 ft 214 kts 293°
2026-04-27 23:28 -41.20884 -70.99159 5334 ft 210 kts 293°
2026-04-27 23:28 -41.20325 -71.00765 5071 ft 203 kts 293°
2026-04-27 23:28 -41.19748 -71.02421 4806 ft 190 kts 293°
2026-04-27 23:28 -41.19212 -71.03962 4529 ft 178 kts 294°
2026-04-27 23:29 -41.18715 -71.05392 4284 ft 162 kts 294°
2026-04-27 23:29 -41.18263 -71.06693 4075 ft 153 kts 294°
2026-04-27 23:29 -41.17820 -71.07970 3850 ft 150 kts 294°
2026-04-27 23:29 -41.17391 -71.09205 3652 ft 144 kts 294°
2026-04-27 23:30 -41.16970 -71.10419 3472 ft 146 kts 295°
2026-04-27 23:30 -41.16543 -71.11650 3276 ft 147 kts 295°
2026-04-27 23:30 -41.16117 -71.12889 3069 ft 146 kts 295°
2026-04-27 23:30 -41.15705 -71.14093 2856 ft 144 kts 297°
2026-04-27 23:31 -41.15285 -71.15270 2751 ft 129 kts 296°
2026-04-27 23:31 -41.14996 -71.16099 2753 ft 68 kts 294°
2026-04-27 23:31 -41.14890 -71.16332 2753 ft 14 kts 356°
2026-04-27 23:31 -41.14826 -71.16300 2751 ft 2 kts 25°
2026-04-27 23:32 -41.14822 -71.16298 2750 ft 1 kts 25°
2026-04-27 23:32 -41.14821 -71.16297 2751 ft 0 kts 25°
2026-04-27 23:33 -41.14820 -71.16297 2751 ft 1 kts 25°
2026-04-27 23:34 -41.14812 -71.16292 2750 ft 2 kts 25°
2026-04-27 23:34 -41.14794 -71.16280 2749 ft 6 kts 25°
2026-04-27 23:34 -41.14746 -71.16242 2748 ft 8 kts 28°
2026-04-27 23:34 -41.14695 -71.16244 2748 ft 3 kts 346°
2026-04-27 23:35 -41.14677 -71.16250 2748 ft 2 kts 346°
2026-04-27 23:35 -41.14664 -71.16246 2748 ft 2 kts 44°
2026-04-27 23:35 -41.14656 -71.16233 2749 ft 2 kts 57°
2026-04-27 23:35 -41.14655 -71.16226 2748 ft 0 kts 68°